RADUGA 1M-3 DEB, 55000

Orbit data source: Space-Track

RADUGA 1M-3 DEB, 55000 is space debris in GEO originally from a launch on Mon, 11 Nov 2013 UTC launched from the Tyuratam Missile And Space Complex (TTMTR). Debris objects in space refer to the collection of defunct objects orbiting the Earth. Examples of debris include non-operational satellites, rocket bodies, and fragments generated from explosions, collisions, or faulty payload assembly.

Not visible in the next 10 days
Identifier
55000, 2013-062D
Orbit
GEO
Country
Flag of CISCIS
Related business
Manufacturer
Resehetnev ISS
Mission
Spacecraft
Bus & Motor
Unknown
Mass
Unknown
Launch date (UTC)
2013-11-11 (13 years ago)
Launch vehicle
Unknown
Launch site
Tyuratam Missile And Space Complex (TTMTR)
Object type
Payload
Rocket body
Debris
Shape & HBR
Unknown shape, 1.1 m
Radar Cross Section
RCS unknown

Expand to show TLE details & history
Last TLE update: 8 months ago

TLE from 8 months ago
0 RADUGA 1M-3 DEB
1 55000U 13062D   25284.57208225  .00000077  00000-0  00000-0 0  9998
2 55000   5.4792  74.3918 0123325 152.0340 208.7289  1.00415276 20613
Epoch: 2025-10-11T13:43Z
TLE epoch observation values (Epoch: 2025-10-11T13:43:47.906Z)
Latitude
-0°
Longitude
-151.89804°
Altitude
36,203.597 km
Speed
3.043 km/s
True Right ascension
04h 57m 48s
True Declination
0° 00' 00"
Sunlit
Object was in daylight at epoch
Visualization orbit readout
Latitude
Unknown
Longitude
Unknown
Altitude
Unknown
Speed
Unknown
Apparent Right ascension
Unknown
Apparent Declination
Unknown
Sunlit
N/A
Visualization observer readout
Local Sidereal Time
21:31:24
Azimuth
Unknown
Elevation
Unknown
Doppler factor
Unknown
Orbital elements
Apogee altitude
36,266.989 km
Perigee altitude
35,227.96 km
Semi-major axis
42,125.611 km
Eccentricity
0.01233
Inclination
5.4792°
RAAN
74.3918°
Arg. of periapsis
152.034°
True anomaly
208.0587°
Mean anomaly
208.7289°
Eccentric anomaly
208.3929°
Mean motion
0.25103 °/min
Orbital period
1,434.1 mins
BSTAR
0
Loading maneuver chart data...
Computing Atmospheric mass density...
Loading historical data...
Loading historical data...
Loading historical data...
Loading historical data...
Loading historical data...
Loading historical data...
Loading historical data...
Other satellites on launch #62 in the year 2013 (2013-11-11 UTC)

Documentation

Showing up to 5 results
|